Time,TemperatureF,DewpointF,PressureIn,WindDirection,WindDirectionDegrees,WindSpeedMPH,WindSpeedGustMPH,Humidity,HourlyPrecipIn,Conditions,Clouds,dailyrainin,SoftwareType,DateUTC
2013-01-29 00:03:00,37.3,36.0,30.01,NNE,21,0.0,-999.0,96,-99.99,,,0.00,ADS-WS1 bash script,2013-01-29 05:03:00,
2013-01-29 00:05:00,37.3,36.0,30.02,NNE,21,0.0,-999.0,97,-99.99,,,0.00,ADS-WS1 bash script,2013-01-29 05:05:00,
2013-01-29 00:10:00,37.3,36.0,30.02,East,81,0.0,-999.0,96,-99.99,,,0.00,ADS-WS1 bash script,2013-01-29 05:10:00,
2013-01-29 00:15:00,37.3,36.0,30.01,NNE,21,0.0,-999.0,96,-99.99,,,0.00,ADS-WS1 bash script,2013-01-29 05:15:00,
2013-01-29 00:20:00,37.3,36.0,30.02,East,83,0.0,-999.0,96,-99.99,,,0.00,ADS-WS1 bash script,2013-01-29 05:20:00,
2013-01-29 00:30:00,37.3,36.0,30.02,NE,43,0.0,-999.0,97,-99.99,,,0.00,ADS-WS1 bash script,2013-01-29 05:30:00,
2013-01-29 00:40:00,37.2,36.0,30.01,South,179,0.0,-999.0,96,-99.99,,,0.00,ADS-WS1 bash script,2013-01-29 05:40:00,
2013-01-29 00:45:00,37.2,36.0,30.01,SSW,193,0.0,-999.0,97,-99.99,,,0.00,ADS-WS1 bash script,2013-01-29 05:45:00,
2013-01-29 00:50:00,37.2,36.0,30.01,SE,134,0.0,-999.0,96,-99.99,,,0.00,ADS-WS1 bash script,2013-01-29 05:50:00,
2013-01-29 01:00:00,37.2,36.0,30.01,SSW,197,0.0,-999.0,96,-99.99,,,0.00,ADS-WS1 bash script,2013-01-29 06:00:00,
2013-01-29 01:10:00,37.2,36.0,29.99,SE,135,1.0,-999.0,96,-99.99,,,0.00,ADS-WS1 bash script,2013-01-29 06:10:00,
2013-01-29 01:15:00,37.2,36.0,29.99,SE,139,2.0,-999.0,97,-99.99,,,0.00,ADS-WS1 bash script,2013-01-29 06:15:00,
2013-01-29 01:20:00,37.2,36.0,30.00,SW,224,3.0,-999.0,97,-99.99,,,0.00,ADS-WS1 bash script,2013-01-29 06:20:00,
2013-01-29 01:30:00,37.2,36.0,29.99,SSW,199,0.0,-999.0,97,-99.99,,,0.00,ADS-WS1 bash script,2013-01-29 06:30:00,
2013-01-29 01:35:00,37.2,36.0,30.00,NE,43,0.0,-999.0,96,-99.99,,,0.00,ADS-WS1 bash script,2013-01-29 06:35:00,
2013-01-29 01:40:00,37.2,36.0,29.99,SE,138,1.0,-999.0,97,-99.99,,,0.00,ADS-WS1 bash script,2013-01-29 06:40:00,
2013-01-29 01:45:00,37.2,36.0,29.99,SSW,199,0.0,-999.0,97,-99.99,,,0.00,ADS-WS1 bash script,2013-01-29 06:45:00,
2013-01-29 01:50:00,37.2,36.0,29.98,SE,134,1.0,-999.0,97,-99.99,,,0.00,ADS-WS1 bash script,2013-01-29 06:50:00,
2013-01-29 02:00:00,37.2,36.0,29.99,NNW,335,0.0,-999.0,97,-99.99,,,0.00,ADS-WS1 bash script,2013-01-29 07:00:00,
2013-01-29 02:05:00,37.2,36.0,29.98,SE,134,1.0,-999.0,97,-99.99,,,0.00,ADS-WS1 bash script,2013-01-29 07:05:00,
2013-01-29 02:10:00,37.2,37.0,29.98,SE,134,1.0,-999.0,98,-99.99,,,0.00,ADS-WS1 bash script,2013-01-29 07:10:00,
2013-01-29 02:15:00,37.2,36.0,29.98,South,179,0.0,-999.0,97,-99.99,,,0.00,ADS-WS1 bash script,2013-01-29 07:15:00,
2013-01-29 02:20:00,37.2,37.0,29.98,SSE,152,3.0,-999.0,98,-99.99,,,0.00,ADS-WS1 bash script,2013-01-29 07:20:00,
2013-01-29 02:30:00,37.3,36.0,29.98,SSW,208,1.0,-999.0,97,-99.99,,,0.00,ADS-WS1 bash script,2013-01-29 07:30:00,
2013-01-29 02:35:00,37.3,36.0,29.99,South,179,1.0,-999.0,97,-99.99,,,0.00,ADS-WS1 bash script,2013-01-29 07:35:00,
2013-01-29 02:40:00,37.3,37.0,29.99,South,179,0.0,-999.0,98,-99.99,,,0.00,ADS-WS1 bash script,2013-01-29 07:40:00,
2013-01-29 02:45:00,37.3,37.0,29.99,South,179,0.0,-999.0,98,-99.99,,,0.00,ADS-WS1 bash script,2013-01-29 07:45:00,
2013-01-29 02:50:00,37.2,36.0,29.99,South,179,0.0,-999.0,97,-99.99,,,0.00,ADS-WS1 bash script,2013-01-29 07:50:00,
2013-01-29 03:00:00,37.2,37.0,29.98,South,179,2.0,-999.0,98,-99.99,,,0.00,ADS-WS1 bash script,2013-01-29 08:00:00,
2013-01-29 03:10:00,37.3,37.0,29.98,SSE,156,4.0,-999.0,98,-99.99,,,0.00,ADS-WS1 bash script,2013-01-29 08:10:00,
2013-01-29 03:15:00,37.3,37.0,29.97,South,179,1.0,-999.0,98,-99.99,,,0.00,ADS-WS1 bash script,2013-01-29 08:15:00,
2013-01-29 03:20:00,37.3,37.0,29.98,SSE,160,5.0,-999.0,99,-99.99,,,0.00,ADS-WS1 bash script,2013-01-29 08:20:00,
2013-01-29 03:30:00,37.3,37.0,29.97,South,179,2.0,-999.0,99,-99.99,,,0.00,ADS-WS1 bash script,2013-01-29 08:30:00,
2013-01-29 03:35:00,37.3,37.0,29.96,South,179,1.0,-999.0,99,-99.99,,,0.00,ADS-WS1 bash script,2013-01-29 08:35:00,
2013-01-29 03:40:00,37.3,37.0,29.97,South,179,2.0,-999.0,99,-99.99,,,0.00,ADS-WS1 bash script,2013-01-29 08:40:00,
2013-01-29 03:45:00,37.3,37.0,29.96,SE,142,2.0,-999.0,99,-99.99,,,0.00,ADS-WS1 bash script,2013-01-29 08:45:00,
2013-01-29 03:50:00,37.3,37.0,29.96,South,179,1.0,-999.0,99,-99.99,,,0.00,ADS-WS1 bash script,2013-01-29 08:50:00,
2013-01-29 04:00:00,37.3,37.0,29.95,SE,134,3.0,-999.0,99,-99.99,,,0.00,ADS-WS1 bash script,2013-01-29 09:00:00,
2013-01-29 04:05:00,37.5,38.0,29.96,SE,134,5.0,-999.0,99,-99.99,,,0.00,ADS-WS1 bash script,2013-01-29 09:05:00,
2013-01-29 04:10:00,37.5,38.0,29.94,SSE,156,4.0,-999.0,99,-99.99,,,0.00,ADS-WS1 bash script,2013-01-29 09:10:00,
2013-01-29 04:15:00,37.3,37.0,29.95,South,179,3.0,-999.0,99,-99.99,,,0.00,ADS-WS1 bash script,2013-01-29 09:15:00,
2013-01-29 04:20:00,37.5,38.0,29.95,SSE,149,3.0,-999.0,99,-99.99,,,0.00,ADS-WS1 bash script,2013-01-29 09:20:00,
2013-01-29 04:25:00,37.5,38.0,29.94,ESE,104,3.0,-999.0,99,-99.99,,,0.00,ADS-WS1 bash script,2013-01-29 09:25:00,
2013-01-29 04:30:00,37.5,38.0,29.93,SE,141,3.0,-999.0,99,-99.99,,,0.00,ADS-WS1 bash script,2013-01-29 09:30:00,
2013-01-29 04:35:00,37.5,38.0,29.92,South,179,5.0,-999.0,99,-99.99,,,0.00,ADS-WS1 bash script,2013-01-29 09:35:00,
2013-01-29 04:40:00,37.5,38.0,29.91,SSE,165,3.0,-999.0,99,-99.99,,,0.00,ADS-WS1 bash script,2013-01-29 09:40:00,
2013-01-29 04:45:00,37.5,38.0,29.92,SSE,159,2.0,-999.0,99,-99.99,,,0.00,ADS-WS1 bash script,2013-01-29 09:45:00,
2013-01-29 04:50:00,37.5,38.0,29.93,West,268,0.0,-999.0,99,-99.99,,,1.00,ADS-WS1 bash script,2013-01-29 09:50:00,
2013-01-29 05:00:00,37.5,38.0,29.94,South,179,0.0,-999.0,99,-99.99,,,2.00,ADS-WS1 bash script,2013-01-29 10:00:00,
2013-01-29 05:05:00,37.5,38.0,29.94,SE,134,0.0,-999.0,99,-99.99,,,3.00,ADS-WS1 bash script,2013-01-29 10:05:00,
2013-01-29 05:10:00,37.7,38.0,29.91,SE,134,7.0,-999.0,100,-99.99,,,4.00,ADS-WS1 bash script,2013-01-29 10:10:00,
2013-01-29 05:15:00,37.5,38.0,29.88,SSE,156,6.0,-999.0,99,-99.99,,,5.00,ADS-WS1 bash script,2013-01-29 10:15:00,
2013-01-29 05:20:00,37.5,38.0,29.87,SE,145,8.0,-999.0,99,-99.99,,,6.00,ADS-WS1 bash script,2013-01-29 10:20:00,
2013-01-29 05:30:00,37.5,38.0,29.90,South,179,3.0,-999.0,99,-99.99,,,6.00,ADS-WS1 bash script,2013-01-29 10:30:00,
2013-01-29 05:35:00,37.5,38.0,29.89,SSE,166,5.0,-999.0,99,-99.99,,,7.00,ADS-WS1 bash script,2013-01-29 10:35:00,
2013-01-29 05:40:00,37.7,38.0,29.91,SE,134,2.0,-999.0,99,-99.99,,,8.00,ADS-WS1 bash script,2013-01-29 10:40:00,
2013-01-29 05:45:00,37.9,38.0,29.91,SE,134,3.0,-999.0,100,-99.99,,,8.00,ADS-WS1 bash script,2013-01-29 10:45:00,
2013-01-29 05:50:00,37.7,38.0,29.89,SE,146,4.0,-999.0,99,-99.99,,,8.00,ADS-WS1 bash script,2013-01-29 10:50:00,
2013-01-29 06:00:00,37.9,38.0,29.88,SSE,163,3.0,-999.0,99,-99.99,,,8.00,ADS-WS1 bash script,2013-01-29 11:00:00,
2013-01-29 06:05:00,37.9,38.0,29.89,SSE,156,3.0,-999.0,99,-99.99,,,8.00,ADS-WS1 bash script,2013-01-29 11:05:00,
2013-01-29 06:10:00,37.9,38.0,29.88,SE,125,4.0,-999.0,99,-99.99,,,8.00,ADS-WS1 bash script,2013-01-29 11:10:00,
2013-01-29 06:15:00,37.9,38.0,29.87,SE,134,2.0,-999.0,99,-99.99,,,8.00,ADS-WS1 bash script,2013-01-29 11:15:00,
2013-01-29 06:20:00,38.1,38.0,29.87,East,94,4.0,-999.0,99,-99.99,,,8.00,ADS-WS1 bash script,2013-01-29 11:20:00,
2013-01-29 06:30:00,38.1,38.0,29.88,SE,134,4.0,-999.0,99,-99.99,,,8.00,ADS-WS1 bash script,2013-01-29 11:30:00,
2013-01-29 06:35:00,38.1,38.0,29.87,SE,134,1.0,-999.0,99,-99.99,,,8.00,ADS-WS1 bash script,2013-01-29 11:35:00,
2013-01-29 06:40:00,38.1,38.0,29.86,East,94,3.0,-999.0,98,-99.99,,,8.00,ADS-WS1 bash script,2013-01-29 11:40:00,
2013-01-29 06:45:00,38.1,38.0,29.86,SE,125,2.0,-999.0,99,-99.99,,,8.00,ADS-WS1 bash script,2013-01-29 11:45:00,
2013-01-29 06:50:00,38.2,38.0,29.85,SE,138,5.0,-999.0,99,-99.99,,,8.00,ADS-WS1 bash script,2013-01-29 11:50:00,
2013-01-29 06:55:00,38.2,38.0,29.85,SE,125,2.0,-999.0,99,-99.99,,,8.00,ADS-WS1 bash script,2013-01-29 11:55:00,
2013-01-29 07:00:00,38.2,38.0,29.85,NE,43,1.0,-999.0,99,-99.99,,,8.00,ADS-WS1 bash script,2013-01-29 12:00:00,
2013-01-29 07:05:00,38.2,38.0,29.85,SSE,156,1.0,-999.0,99,-99.99,,,8.00,ADS-WS1 bash script,2013-01-29 12:05:00,
2013-01-29 07:10:00,38.2,38.0,29.86,South,169,3.0,-999.0,99,-99.99,,,8.00,ADS-WS1 bash script,2013-01-29 12:10:00,
2013-01-29 07:20:00,38.4,38.0,29.85,NE,43,1.0,-999.0,99,-99.99,,,8.00,ADS-WS1 bash script,2013-01-29 12:20:00,
2013-01-29 07:25:00,38.4,38.0,29.85,East,84,0.0,-999.0,99,-99.99,,,8.00,ADS-WS1 bash script,2013-01-29 12:25:00,
2013-01-29 07:35:00,38.4,38.0,29.85,SE,134,2.0,-999.0,98,-99.99,,,8.00,ADS-WS1 bash script,2013-01-29 12:35:00,
2013-01-29 07:40:00,38.4,38.0,29.84,East,88,0.0,-999.0,99,-99.99,,,9.00,ADS-WS1 bash script,2013-01-29 12:40:00,
2013-01-29 07:45:00,38.4,38.0,29.84,SE,134,2.0,-999.0,99,-99.99,,,9.00,ADS-WS1 bash script,2013-01-29 12:45:00,
2013-01-29 07:50:00,38.4,38.0,29.84,NW,313,0.0,-999.0,99,-99.99,,,9.00,ADS-WS1 bash script,2013-01-29 12:50:00,
2013-01-29 07:55:00,38.6,39.0,29.83,SE,134,1.0,-999.0,99,-99.99,,,9.00,ADS-WS1 bash script,2013-01-29 12:55:00,
2013-01-29 08:00:00,38.4,38.0,29.83,South,175,0.0,-999.0,99,-99.99,,,9.00,ADS-WS1 bash script,2013-01-29 13:00:00,
2013-01-29 08:05:00,38.4,38.0,29.83,NW,313,0.0,-999.0,100,-99.99,,,9.00,ADS-WS1 bash script,2013-01-29 13:05:00,
2013-01-29 08:10:00,38.6,39.0,29.84,NW,313,1.0,-999.0,99,-99.99,,,9.00,ADS-WS1 bash script,2013-01-29 13:10:00,
2013-01-29 08:15:00,38.6,39.0,29.84,NNW,347,0.0,-999.0,100,-99.99,,,9.00,ADS-WS1 bash script,2013-01-29 13:15:00,
2013-01-29 08:20:00,38.6,39.0,29.84,North,0,0.0,-999.0,99,-99.99,,,9.00,ADS-WS1 bash script,2013-01-29 13:20:00,
2013-01-29 08:25:00,38.4,38.0,29.84,NE,43,0.0,-999.0,99,-99.99,,,12.00,ADS-WS1 bash script,2013-01-29 13:25:00,
2013-01-29 08:30:00,38.6,39.0,29.84,NNW,348,0.0,-999.0,99,-99.99,,,13.00,ADS-WS1 bash script,2013-01-29 13:30:00,
2013-01-29 08:35:00,38.6,39.0,29.83,SE,134,0.0,-999.0,99,-99.99,,,14.00,ADS-WS1 bash script,2013-01-29 13:35:00,
2013-01-29 08:40:00,38.6,39.0,29.83,NW,313,0.0,-999.0,99,-99.99,,,14.00,ADS-WS1 bash script,2013-01-29 13:40:00,
2013-01-29 08:45:00,38.6,39.0,29.83,SE,134,0.0,-999.0,99,-99.99,,,14.00,ADS-WS1 bash script,2013-01-29 13:45:00,
2013-01-29 08:50:00,38.8,39.0,29.83,East,86,0.0,-999.0,99,-99.99,,,14.00,ADS-WS1 bash script,2013-01-29 13:50:00,
2013-01-29 08:55:00,39.0,39.0,29.84,SW,225,0.0,-999.0,99,-99.99,,,14.00,ADS-WS1 bash script,2013-01-29 13:55:00,
2013-01-29 09:00:00,39.0,39.0,29.84,NW,313,0.0,-999.0,99,-99.99,,,14.00,ADS-WS1 bash script,2013-01-29 14:00:00,
2013-01-29 09:10:00,39.0,39.0,29.83,East,81,0.0,-999.0,99,-99.99,,,14.00,ADS-WS1 bash script,2013-01-29 14:10:00,
2013-01-29 09:15:00,39.0,39.0,29.83,NE,43,0.0,-999.0,99,-99.99,,,14.00,ADS-WS1 bash script,2013-01-29 14:15:00,
2013-01-29 09:20:00,39.1,39.0,29.83,NNW,331,0.0,-999.0,99,-99.99,,,14.00,ADS-WS1 bash script,2013-01-29 14:20:00,
2013-01-29 09:25:00,39.1,39.0,29.83,North,351,0.0,-999.0,99,-99.99,,,14.00,ADS-WS1 bash script,2013-01-29 14:25:00,
2013-01-29 09:30:00,39.1,39.0,29.83,NE,43,0.0,-999.0,99,-99.99,,,14.00,ADS-WS1 bash script,2013-01-29 14:30:00,
2013-01-29 09:40:00,39.5,40.0,29.82,NE,43,0.0,-999.0,99,-99.99,,,14.00,ADS-WS1 bash script,2013-01-29 14:40:00,
2013-01-29 09:50:00,39.7,40.0,29.82,North,351,0.0,-999.0,100,-99.99,,,14.00,ADS-WS1 bash script,2013-01-29 14:50:00,
2013-01-29 10:00:00,39.9,40.0,29.82,North,0,0.0,-999.0,100,-99.99,,,14.00,ADS-WS1 bash script,2013-01-29 15:00:00,
2013-01-29 10:05:00,39.9,40.0,29.82,North,0,0.0,-999.0,99,-99.99,,,14.00,ADS-WS1 bash script,2013-01-29 15:05:00,
2013-01-29 10:10:00,39.9,40.0,29.81,North,0,0.0,-999.0,100,-99.99,,,14.00,ADS-WS1 bash script,2013-01-29 15:10:00,
2013-01-29 10:15:00,40.0,40.0,29.82,North,0,0.0,-999.0,99,-99.99,,,14.00,ADS-WS1 bash script,2013-01-29 15:15:00,
2013-01-29 10:20:00,40.0,40.0,29.81,East,84,0.0,-999.0,100,-99.99,,,14.00,ADS-WS1 bash script,2013-01-29 15:20:00,
2013-01-29 10:25:00,40.2,40.0,29.81,ENE,66,0.0,-999.0,100,-99.99,,,14.00,ADS-WS1 bash script,2013-01-29 15:25:00,
2013-01-29 10:30:00,40.6,41.0,29.81,South,179,1.0,-999.0,100,-99.99,,,14.00,ADS-WS1 bash script,2013-01-29 15:30:00,
2013-01-29 10:35:00,40.8,41.0,29.81,South,179,0.0,-999.0,100,-99.99,,,14.00,ADS-WS1 bash script,2013-01-29 15:35:00,
2013-01-29 10:40:00,40.9,41.0,29.81,South,179,0.0,-999.0,100,-99.99,,,14.00,ADS-WS1 bash script,2013-01-29 15:40:00,
2013-01-29 10:45:00,41.3,41.0,29.81,South,184,3.0,-999.0,100,-99.99,,,14.00,ADS-WS1 bash script,2013-01-29 15:45:00,
2013-01-29 10:50:00,42.0,42.0,29.81,SSW,200,2.0,-999.0,100,-99.99,,,14.00,ADS-WS1 bash script,2013-01-29 15:50:00,
2013-01-29 10:55:00,44.0,44.0,29.81,SW,227,1.0,-999.0,100,-99.99,,,14.00,ADS-WS1 bash script,2013-01-29 15:55:00,
2013-01-29 11:05:00,48.5,48.0,29.80,SSW,211,2.0,-999.0,100,-99.99,,,15.00,ADS-WS1 bash script,2013-01-29 16:05:00,
2013-01-29 11:10:00,49.6,50.0,29.80,East,88,2.0,-999.0,100,-99.99,,,16.00,ADS-WS1 bash script,2013-01-29 16:10:00,
2013-01-29 11:15:00,50.1,50.0,29.80,SW,228,2.0,-999.0,100,-99.99,,,16.00,ADS-WS1 bash script,2013-01-29 16:15:00,
2013-01-29 11:20:00,50.6,51.0,29.81,SW,217,6.0,-999.0,100,-99.99,,,16.00,ADS-WS1 bash script,2013-01-29 16:20:00,
2013-01-29 11:30:00,50.6,51.0,29.80,SW,227,4.0,-999.0,100,-99.99,,,16.00,ADS-WS1 bash script,2013-01-29 16:30:00,
2013-01-29 11:35:00,50.8,51.0,29.81,NW,320,1.0,-999.0,100,-99.99,,,16.00,ADS-WS1 bash script,2013-01-29 16:35:00,
2013-01-29 11:40:00,51.0,51.0,29.81,SSW,197,2.0,-999.0,100,-99.99,,,16.00,ADS-WS1 bash script,2013-01-29 16:40:00,
2013-01-29 11:45:00,51.2,51.0,29.80,WSW,238,6.0,-999.0,100,-99.99,,,17.00,ADS-WS1 bash script,2013-01-29 16:45:00,
2013-01-29 11:50:00,51.5,52.0,29.80,WSW,245,10.0,-999.0,100,-99.99,,,17.00,ADS-WS1 bash script,2013-01-29 16:50:00,
2013-01-29 11:55:00,51.7,52.0,29.81,WSW,239,4.0,-999.0,100,-99.99,,,17.00,ADS-WS1 bash script,2013-01-29 16:55:00,
2013-01-29 12:05:00,52.1,52.0,29.80,SW,214,3.0,-999.0,100,-99.99,,,17.00,ADS-WS1 bash script,2013-01-29 17:05:00,
2013-01-29 12:10:00,52.1,52.0,29.79,SSW,200,4.0,-999.0,100,-99.99,,,17.00,ADS-WS1 bash script,2013-01-29 17:10:00,
2013-01-29 12:15:00,52.1,52.0,29.77,SW,231,6.0,-999.0,100,-99.99,,,18.00,ADS-WS1 bash script,2013-01-29 17:15:00,
2013-01-29 12:20:00,52.1,52.0,29.77,SW,231,6.0,-999.0,100,-99.99,,,19.00,ADS-WS1 bash script,2013-01-29 17:20:00,
2013-01-29 12:25:00,52.3,52.0,29.77,SW,224,5.0,-999.0,100,-99.99,,,19.00,ADS-WS1 bash script,2013-01-29 17:25:00,
2013-01-29 12:30:00,52.4,52.0,29.76,SSW,208,7.0,-999.0,100,-99.99,,,19.00,ADS-WS1 bash script,2013-01-29 17:30:00,
2013-01-29 12:35:00,52.6,53.0,29.77,WSW,238,5.0,-999.0,100,-99.99,,,19.00,ADS-WS1 bash script,2013-01-29 17:35:00,
2013-01-29 12:40:00,52.8,53.0,29.77,SW,224,7.0,-999.0,100,-99.99,,,19.00,ADS-WS1 bash script,2013-01-29 17:40:00,
2013-01-29 12:45:00,53.0,53.0,29.77,WSW,251,5.0,-999.0,100,-99.99,,,19.00,ADS-WS1 bash script,2013-01-29 17:45:00,
2013-01-29 12:50:00,53.2,53.0,29.76,SSW,207,3.0,-999.0,100,-99.99,,,19.00,ADS-WS1 bash script,2013-01-29 17:50:00,
2013-01-29 12:55:00,53.3,53.0,29.76,WSW,242,4.0,-999.0,100,-99.99,,,19.00,ADS-WS1 bash script,2013-01-29 17:55:00,
2013-01-29 13:00:00,53.5,54.0,29.77,SW,220,7.0,-999.0,100,-99.99,,,19.00,ADS-WS1 bash script,2013-01-29 18:00:00,
2013-01-29 13:05:00,53.5,54.0,29.76,SW,227,7.0,-999.0,100,-99.99,,,19.00,ADS-WS1 bash script,2013-01-29 18:05:00,
2013-01-29 13:10:00,53.7,54.0,29.76,SW,232,6.0,-999.0,100,-99.99,,,19.00,ADS-WS1 bash script,2013-01-29 18:10:00,
2013-01-29 13:15:00,53.7,54.0,29.76,WSW,239,1.0,-999.0,100,-99.99,,,19.00,ADS-WS1 bash script,2013-01-29 18:15:00,
2013-01-29 13:20:00,53.9,54.0,29.76,WSW,242,6.0,-999.0,100,-99.99,,,19.00,ADS-WS1 bash script,2013-01-29 18:20:00,
2013-01-29 13:25:00,53.9,54.0,29.75,WSW,245,9.0,-999.0,100,-99.99,,,19.00,ADS-WS1 bash script,2013-01-29 18:25:00,
2013-01-29 13:30:00,54.1,54.0,29.76,WSW,256,3.0,-999.0,100,-99.99,,,19.00,ADS-WS1 bash script,2013-01-29 18:30:00,
2013-01-29 13:35:00,54.1,54.0,29.76,SW,231,3.0,-999.0,100,-99.99,,,19.00,ADS-WS1 bash script,2013-01-29 18:35:00,
2013-01-29 13:40:00,54.2,54.0,29.75,SW,227,2.0,-999.0,100,-99.99,,,19.00,ADS-WS1 bash script,2013-01-29 18:40:00,
2013-01-29 13:45:00,54.2,54.0,29.75,WSW,245,5.0,-999.0,100,-99.99,,,19.00,ADS-WS1 bash script,2013-01-29 18:45:00,
2013-01-29 13:50:00,54.2,54.0,29.75,SW,235,3.0,-999.0,100,-99.99,,,19.00,ADS-WS1 bash script,2013-01-29 18:50:00,
2013-01-29 13:55:00,54.2,54.0,29.74,SSW,203,5.0,-999.0,100,-99.99,,,19.00,ADS-WS1 bash script,2013-01-29 18:55:00,
2013-01-29 14:00:00,54.4,54.0,29.75,SW,231,8.0,-999.0,100,-99.99,,,19.00,ADS-WS1 bash script,2013-01-29 19:00:00,
2013-01-29 14:05:00,54.4,54.0,29.74,SW,234,9.0,-999.0,100,-99.99,,,19.00,ADS-WS1 bash script,2013-01-29 19:05:00,
2013-01-29 14:10:00,54.6,55.0,29.73,SW,214,5.0,-999.0,100,-99.99,,,19.00,ADS-WS1 bash script,2013-01-29 19:10:00,
2013-01-29 14:15:00,54.6,55.0,29.74,West,259,1.0,-999.0,100,-99.99,,,19.00,ADS-WS1 bash script,2013-01-29 19:15:00,
2013-01-29 14:20:00,54.6,55.0,29.74,SSW,211,2.0,-999.0,100,-99.99,,,19.00,ADS-WS1 bash script,2013-01-29 19:20:00,
2013-01-29 14:25:00,54.8,55.0,29.74,SW,220,4.0,-999.0,100,-99.99,,,19.00,ADS-WS1 bash script,2013-01-29 19:25:00,
2013-01-29 14:35:00,55.0,55.0,29.73,SW,214,5.0,-999.0,100,-99.99,,,19.00,ADS-WS1 bash script,2013-01-29 19:35:00,
2013-01-29 14:40:00,55.0,55.0,29.73,SW,231,3.0,-999.0,100,-99.99,,,19.00,ADS-WS1 bash script,2013-01-29 19:40:00,
2013-01-29 14:45:00,55.1,55.0,29.73,SW,218,3.0,-999.0,100,-99.99,,,19.00,ADS-WS1 bash script,2013-01-29 19:45:00,
2013-01-29 14:55:00,55.1,55.0,29.72,WSW,245,2.0,-999.0,100,-99.99,,,19.00,ADS-WS1 bash script,2013-01-29 19:55:00,
2013-01-29 15:00:00,55.1,55.0,29.73,SW,217,5.0,-999.0,100,-99.99,,,19.00,ADS-WS1 bash script,2013-01-29 20:00:00,
2013-01-29 15:10:00,55.1,55.0,29.73,SSW,207,2.0,-999.0,99,-99.99,,,19.00,ADS-WS1 bash script,2013-01-29 20:10:00,
2013-01-29 15:20:00,55.1,55.0,29.73,SW,225,4.0,-999.0,99,-99.99,,,19.00,ADS-WS1 bash script,2013-01-29 20:20:00,
2013-01-29 15:25:00,55.1,55.0,29.73,SW,224,3.0,-999.0,99,-99.99,,,19.00,ADS-WS1 bash script,2013-01-29 20:25:00,
2013-01-29 15:30:00,55.0,55.0,29.73,WNW,282,3.0,-999.0,99,-99.99,,,19.00,ADS-WS1 bash script,2013-01-29 20:30:00,
2013-01-29 15:35:00,55.0,55.0,29.72,SW,220,2.0,-999.0,99,-99.99,,,20.00,ADS-WS1 bash script,2013-01-29 20:35:00,
2013-01-29 15:45:00,55.0,55.0,29.73,WSW,256,5.0,-999.0,98,-99.99,,,0.00,ADS-WS1 bash script,2013-01-29 20:45:00,
2013-01-29 15:50:00,55.0,55.0,29.73,WSW,248,4.0,-999.0,99,-99.99,,,0.00,ADS-WS1 bash script,2013-01-29 20:50:00,
2013-01-29 16:00:00,54.8,55.0,29.73,South,179,4.0,-999.0,98,-99.99,,,0.00,ADS-WS1 bash script,2013-01-29 21:00:00,
2013-01-29 16:05:00,54.8,55.0,29.73,SW,224,3.0,-999.0,99,-99.99,,,0.00,ADS-WS1 bash script,2013-01-29 21:05:00,
2013-01-29 16:15:00,54.8,55.0,29.73,WSW,238,5.0,-999.0,99,-99.99,,,6.00,ADS-WS1 bash script,2013-01-29 21:15:00,
2013-01-29 16:20:00,55.0,55.0,29.73,SW,227,3.0,-999.0,99,-99.99,,,9.00,ADS-WS1 bash script,2013-01-29 21:20:00,
2013-01-29 16:25:00,55.0,55.0,29.73,SW,234,2.0,-999.0,99,-99.99,,,9.00,ADS-WS1 bash script,2013-01-29 21:25:00,
2013-01-29 16:30:00,55.1,55.0,29.73,SW,228,6.0,-999.0,99,-99.99,,,9.00,ADS-WS1 bash script,2013-01-29 21:30:00,
2013-01-29 16:35:00,55.1,55.0,29.72,SW,235,3.0,-999.0,99,-99.99,,,9.00,ADS-WS1 bash script,2013-01-29 21:35:00,
2013-01-29 16:40:00,55.1,55.0,29.73,WSW,254,5.0,-999.0,99,-99.99,,,9.00,ADS-WS1 bash script,2013-01-29 21:40:00,
2013-01-29 16:45:00,55.3,55.0,29.71,WSW,245,4.0,-999.0,99,-99.99,,,12.00,ADS-WS1 bash script,2013-01-29 21:45:00,
2013-01-29 16:50:00,55.3,55.0,29.71,SW,234,4.0,-999.0,99,-99.99,,,13.00,ADS-WS1 bash script,2013-01-29 21:50:00,
2013-01-29 16:55:00,55.3,55.0,29.72,SSW,193,2.0,-999.0,99,-99.99,,,13.00,ADS-WS1 bash script,2013-01-29 21:55:00,
2013-01-29 17:00:00,55.3,55.0,29.72,WSW,255,3.0,-999.0,99,-99.99,,,13.00,ADS-WS1 bash script,2013-01-29 22:00:00,
2013-01-29 17:10:00,55.3,55.0,29.72,SW,227,4.0,-999.0,99,-99.99,,,14.00,ADS-WS1 bash script,2013-01-29 22:10:00,
2013-01-29 17:15:00,55.3,55.0,29.72,SSW,203,1.0,-999.0,99,-99.99,,,14.00,ADS-WS1 bash script,2013-01-29 22:15:00,
2013-01-29 17:20:00,55.3,55.0,29.71,SSW,211,3.0,-999.0,99,-99.99,,,14.00,ADS-WS1 bash script,2013-01-29 22:20:00,
2013-01-29 17:25:00,55.3,55.0,29.71,South,183,5.0,-999.0,99,-99.99,,,15.00,ADS-WS1 bash script,2013-01-29 22:25:00,
2013-01-29 17:30:00,55.5,56.0,29.71,SSW,210,4.0,-999.0,99,-99.99,,,15.00,ADS-WS1 bash script,2013-01-29 22:30:00,
2013-01-29 17:35:00,55.5,56.0,29.71,SSW,200,2.0,-999.0,99,-99.99,,,16.00,ADS-WS1 bash script,2013-01-29 22:35:00,
2013-01-29 17:40:00,55.5,56.0,29.71,SSW,197,2.0,-999.0,99,-99.99,,,16.00,ADS-WS1 bash script,2013-01-29 22:40:00,
2013-01-29 17:45:00,55.3,55.0,29.70,SSW,203,2.0,-999.0,99,-99.99,,,16.00,ADS-WS1 bash script,2013-01-29 22:45:00,
2013-01-29 17:50:00,55.5,56.0,29.70,SSW,208,4.0,-999.0,99,-99.99,,,16.00,ADS-WS1 bash script,2013-01-29 22:50:00,
2013-01-29 17:55:00,55.7,56.0,29.71,SW,224,3.0,-999.0,99,-99.99,,,16.00,ADS-WS1 bash script,2013-01-29 22:55:00,
2013-01-29 18:00:00,55.8,56.0,29.69,SSW,207,5.0,-999.0,99,-99.99,,,16.00,ADS-WS1 bash script,2013-01-29 23:00:00,
2013-01-29 18:05:00,56.0,56.0,29.70,SSW,197,2.0,-999.0,98,-99.99,,,16.00,ADS-WS1 bash script,2013-01-29 23:05:00,
2013-01-29 18:10:00,56.2,56.0,29.69,WSW,244,5.0,-999.0,98,-99.99,,,16.00,ADS-WS1 bash script,2013-01-29 23:10:00,
2013-01-29 18:15:00,56.2,55.0,29.70,SW,225,3.0,-999.0,97,-99.99,,,16.00,ADS-WS1 bash script,2013-01-29 23:15:00,
2013-01-29 18:20:00,56.2,55.0,29.70,SSW,197,3.0,-999.0,96,-99.99,,,16.00,ADS-WS1 bash script,2013-01-29 23:20:00,
2013-01-29 18:25:00,56.2,55.0,29.70,SSW,211,2.0,-999.0,96,-99.99,,,16.00,ADS-WS1 bash script,2013-01-29 23:25:00,
2013-01-29 18:35:00,56.4,55.0,29.70,SW,224,2.0,-999.0,96,-99.99,,,16.00,ADS-WS1 bash script,2013-01-29 23:35:00,
2013-01-29 18:40:00,56.2,55.0,29.70,SW,220,4.0,-999.0,96,-99.99,,,16.00,ADS-WS1 bash script,2013-01-29 23:40:00,
2013-01-29 18:45:00,56.4,55.0,29.69,SW,234,11.0,-999.0,95,-99.99,,,16.00,ADS-WS1 bash script,2013-01-29 23:45:00,
2013-01-29 18:55:00,56.2,55.0,29.69,WSW,245,5.0,-999.0,95,-99.99,,,16.00,ADS-WS1 bash script,2013-01-29 23:55:00,
2013-01-29 19:05:00,56.4,55.0,29.69,SW,231,5.0,-999.0,95,-99.99,,,18.00,ADS-WS1 bash script,2013-01-30 00:05:00,
2013-01-29 19:10:00,56.4,55.0,29.68,WSW,242,4.0,-999.0,95,-99.99,,,20.00,ADS-WS1 bash script,2013-01-30 00:10:00,
2013-01-29 19:15:00,56.4,55.0,29.67,South,186,3.0,-999.0,95,-99.99,,,22.00,ADS-WS1 bash script,2013-01-30 00:15:00,
2013-01-29 19:20:00,56.2,55.0,29.68,SSW,208,1.0,-999.0,95,-99.99,,,23.00,ADS-WS1 bash script,2013-01-30 00:20:00,
2013-01-29 19:25:00,56.2,55.0,29.68,WSW,251,3.0,-999.0,96,-99.99,,,23.00,ADS-WS1 bash script,2013-01-30 00:25:00,
2013-01-29 19:35:00,56.0,55.0,29.68,SW,225,4.0,-999.0,96,-99.99,,,23.00,ADS-WS1 bash script,2013-01-30 00:35:00,
2013-01-29 19:40:00,56.2,55.0,29.68,WSW,241,8.0,-999.0,96,-99.99,,,24.00,ADS-WS1 bash script,2013-01-30 00:40:00,
2013-01-29 19:45:00,56.2,55.0,29.67,SSW,203,4.0,-999.0,96,-99.99,,,25.00,ADS-WS1 bash script,2013-01-30 00:45:00,
2013-01-29 19:50:00,56.4,55.0,29.68,WSW,245,3.0,-999.0,96,-99.99,,,25.00,ADS-WS1 bash script,2013-01-30 00:50:00,
2013-01-29 19:55:00,56.4,55.0,29.68,SW,224,3.0,-999.0,96,-99.99,,,25.00,ADS-WS1 bash script,2013-01-30 00:55:00,
2013-01-29 20:00:00,56.6,55.0,29.68,South,179,3.0,-999.0,94,-99.99,,,25.00,ADS-WS1 bash script,2013-01-30 01:00:00,
2013-01-29 20:05:00,56.7,55.0,29.68,SW,224,6.0,-999.0,94,-99.99,,,25.00,ADS-WS1 bash script,2013-01-30 01:05:00,
2013-01-29 20:10:00,56.7,55.0,29.67,SW,224,3.0,-999.0,94,-99.99,,,25.00,ADS-WS1 bash script,2013-01-30 01:10:00,
2013-01-29 20:15:00,56.9,55.0,29.66,SSW,197,5.0,-999.0,93,-99.99,,,25.00,ADS-WS1 bash script,2013-01-30 01:15:00,
2013-01-29 20:20:00,57.1,55.0,29.65,SW,225,5.0,-999.0,93,-99.99,,,25.00,ADS-WS1 bash script,2013-01-30 01:20:00,
2013-01-29 20:25:00,57.3,55.0,29.65,SW,217,6.0,-999.0,93,-99.99,,,25.00,ADS-WS1 bash script,2013-01-30 01:25:00,
2013-01-29 20:35:00,57.5,56.0,29.65,WSW,245,8.0,-999.0,92,-99.99,,,25.00,ADS-WS1 bash script,2013-01-30 01:35:00,
2013-01-29 20:40:00,57.6,55.0,29.64,SW,224,4.0,-999.0,91,-99.99,,,25.00,ADS-WS1 bash script,2013-01-30 01:40:00,
2013-01-29 20:45:00,57.6,55.0,29.64,SW,224,4.0,-999.0,91,-99.99,,,25.00,ADS-WS1 bash script,2013-01-30 01:45:00,
2013-01-29 20:50:00,57.6,55.0,29.64,SW,224,9.0,-999.0,90,-99.99,,,25.00,ADS-WS1 bash script,2013-01-30 01:50:00,
2013-01-29 20:55:00,57.8,55.0,29.63,SW,234,6.0,-999.0,90,-99.99,,,25.00,ADS-WS1 bash script,2013-01-30 01:55:00,
2013-01-29 21:00:00,57.8,55.0,29.63,SW,224,4.0,-999.0,90,-99.99,,,25.00,ADS-WS1 bash script,2013-01-30 02:00:00,
2013-01-29 21:05:00,57.8,55.0,29.62,SSW,200,6.0,-999.0,91,-99.99,,,25.00,ADS-WS1 bash script,2013-01-30 02:05:00,
2013-01-29 21:10:00,57.6,55.0,29.62,SSW,208,4.0,-999.0,90,-99.99,,,25.00,ADS-WS1 bash script,2013-01-30 02:10:00,
2013-01-29 21:15:00,57.6,55.0,29.62,SW,224,6.0,-999.0,90,-99.99,,,25.00,ADS-WS1 bash script,2013-01-30 02:15:00,
2013-01-29 21:55:00,58.7,56.0,29.59,SW,224,5.0,-999.0,89,-99.99,,,25.00,ADS-WS1 bash script,2013-01-30 02:55:00,
2013-01-29 22:05:00,58.7,55.0,29.58,SW,224,3.0,-999.0,88,-99.99,,,25.00,ADS-WS1 bash script,2013-01-30 03:05:00,
2013-01-29 22:15:00,58.5,54.0,29.56,South,186,3.0,-999.0,88,-99.99,,,25.00,ADS-WS1 bash script,2013-01-30 03:15:00,
2013-01-29 22:30:00,57.8,55.0,29.56,South,179,8.0,-999.0,90,-99.99,,,25.00,ADS-WS1 bash script,2013-01-30 03:30:00,
2013-01-29 22:35:00,57.5,55.0,29.55,SW,215,3.0,-999.0,90,-99.99,,,25.00,ADS-WS1 bash script,2013-01-30 03:35:00,
2013-01-29 22:45:00,57.1,54.0,29.55,SW,224,4.0,-999.0,90,-99.99,,,25.00,ADS-WS1 bash script,2013-01-30 03:45:00,
2013-01-29 22:50:00,56.9,54.0,29.54,SSW,200,3.0,-999.0,90,-99.99,,,25.00,ADS-WS1 bash script,2013-01-30 03:50:00,
2013-01-29 23:05:00,57.1,54.0,29.54,SSW,206,2.0,-999.0,90,-99.99,,,25.00,ADS-WS1 bash script,2013-01-30 04:05:00,
2013-01-29 23:15:00,56.9,54.0,29.52,SSW,200,4.0,-999.0,91,-99.99,,,25.00,ADS-WS1 bash script,2013-01-30 04:15:00,
2013-01-29 23:30:00,56.9,54.0,29.51,SSW,210,5.0,-999.0,90,-99.99,,,25.00,ADS-WS1 bash script,2013-01-30 04:30:00,
2013-01-29 23:35:00,56.9,54.0,29.51,SSW,200,4.0,-999.0,90,-99.99,,,25.00,ADS-WS1 bash script,2013-01-30 04:35:00,
2013-01-29 23:40:00,56.9,54.0,29.50,SSW,200,3.0,-999.0,90,-99.99,,,25.00,ADS-WS1 bash script,2013-01-30 04:40:00,
2013-01-29 23:50:00,56.7,54.0,29.49,SSW,193,4.0,-999.0,90,-99.99,,,25.00,ADS-WS1 bash script,2013-01-30 04:50:00,